contact:dominique.lefevre@mio.osupytheas.fr, maurice.libes@osupytheas.fr, didier.mallarino@osupytheas.fr
Project:EMSO http://www.emso-fr.org/EMSO-France
Depth: 2436.0 m
Title:EMSO Ligure Ouest : Data MII capteur AQUADOPP
Date,Latitude,Longitude,X_East,Y_North,Z_Up,Amplitude_X,Amplitude_Y,Amplitude_Z,Batterie,SoundSpeed,Heading,Pitch,Roll,Pressure,TIS,Speed,Direction
, degrees North, degrees East, m.s-1, m.s-1,m.s-1, 1, 1, 1, Volt, m.s-1, degree, degree, degree, dbar, degree_C, m.s-1, degree
2022-05-16T00:04:03,42.805,6.029,0.048,-0.003,0.007,103.0,104.0,102.0,13.3,1505.2,321.2,-0.7,1.8,2470.875,13.28,0.048,93.6
2022-05-16T00:07:03,42.805,6.029,0.058,-0.022,0.019,103.0,104.0,102.0,13.3,1505.2,329.7,-0.7,1.9,2470.836,13.28,0.062,110.8
2022-05-16T00:10:03,42.805,6.029,0.063,-0.002,0.02,104.0,103.0,102.0,13.4,1505.2,325.2,-0.7,1.8,2470.788,13.28,0.063,91.8
2022-05-16T00:13:03,42.805,6.029,0.079,-0.015,0.014,102.0,105.0,101.0,13.4,1505.2,329.7,-0.8,1.8,2470.827,13.28,0.08,100.8
2022-05-16T00:16:03,42.805,6.029,0.033,-0.009,-0.032,103.0,105.0,102.0,13.4,1505.2,325.5,-0.7,1.8,2470.782,13.28,0.034,105.3
2022-05-16T00:19:03,42.805,6.029,0.059,-0.011,0.002,103.0,105.0,101.0,13.3,1505.2,321.3,-0.7,1.8,2470.796,13.28,0.06,100.6
2022-05-16T00:22:03,42.805,6.029,0.06,-0.007,0.022,105.0,107.0,101.0,13.3,1505.2,323.7,-0.8,1.8,2470.791,13.28,0.06,96.7
2022-05-16T00:25:03,42.805,6.029,0.061,-0.014,0.026,105.0,106.0,101.0,13.4,1505.2,325.1,-0.7,1.8,2470.794,13.28,0.062,102.9
2022-05-16T00:28:03,42.805,6.029,0.063,-0.017,0.021,105.0,106.0,100.0,13.3,1505.2,324.2,-0.8,1.8,2470.806,13.28,0.065,105.1
2022-05-16T00:31:03,42.805,6.029,0.047,-0.013,-0.007,103.0,107.0,101.0,13.3,1505.2,328.4,-0.7,1.8,2470.807,13.28,0.048,105.5
2022-05-16T00:34:03,42.805,6.029,0.061,-0.018,0.011,103.0,105.0,102.0,13.4,1505.2,325.9,-0.8,1.8,2470.808,13.28,0.063,106.4
2022-05-16T00:37:03,42.805,6.029,0.048,-0.018,0.002,104.0,106.0,101.0,13.3,1505.2,327.8,-0.8,1.8,2470.82,13.28,0.051,110.6
2022-05-16T00:40:03,42.805,6.029,0.078,-0.024,0.031,103.0,104.0,102.0,13.3,1505.2,332.4,-0.8,1.8,2470.793,13.28,0.081,107.1
2022-05-16T00:43:03,42.805,6.029,0.061,-0.007,0.004,105.0,106.0,101.0,13.4,1505.2,328.8,-0.8,1.8,2470.821,13.28,0.061,96.5
2022-05-16T00:46:03,42.805,6.029,0.05,-0.018,0.006,104.0,104.0,102.0,13.3,1505.2,331.2,-0.8,1.8,2470.761,13.28,0.053,109.8
2022-05-16T00:49:03,42.805,6.029,0.048,-0.003,0.004,104.0,105.0,102.0,13.4,1505.2,323.8,-0.7,1.8,2470.809,13.28,0.048,93.6
2022-05-16T00:52:03,42.805,6.029,0.04,-0.009,0.014,104.0,105.0,100.0,13.3,1505.2,328.2,-0.8,1.8,2470.785,13.28,0.041,102.7
2022-05-16T00:55:03,42.805,6.029,0.063,-0.013,0.026,105.0,103.0,101.0,13.3,1505.2,323.3,-0.7,1.8,2470.812,13.28,0.064,101.7
2022-05-16T00:58:03,42.805,6.029,0.032,-0.018,0.014,105.0,104.0,101.0,13.3,1505.2,321.6,-0.8,1.8,2470.745,13.28,0.036,119.4
2022-05-16T01:04:03,42.805,6.029,0.046,-0.018,-0.033,107.0,108.0,105.0,13.4,1505.2,324.9,-0.8,1.8,2470.852,13.28,0.049,111.4
2022-05-16T01:07:04,42.805,6.029,0.084,0.005,0.025,105.0,105.0,101.0,13.4,1505.2,325.1,-0.7,1.8,2470.781,13.28,0.084,86.6
2022-05-16T01:10:03,42.805,6.029,0.065,-0.003,0.021,103.0,105.0,102.0,13.4,1505.2,325.7,-0.8,1.8,2470.809,13.28,0.065,92.6
2022-05-16T01:13:03,42.805,6.029,0.046,-0.002,0.03,104.0,105.0,102.0,13.3,1505.2,328.9,-0.8,1.8,2470.769,13.28,0.046,92.5
2022-05-16T01:16:03,42.805,6.029,0.063,-0.023,0.004,104.0,106.0,102.0,13.4,1505.2,321.5,-0.7,1.8,2470.797,13.28,0.067,110.1
2022-05-16T01:19:03,42.805,6.029,0.074,-0.016,-0.014,106.0,105.0,102.0,13.3,1505.2,324.9,-0.8,1.8,2470.764,13.28,0.075,102.2
2022-05-16T01:22:03,42.805,6.029,0.039,-0.012,0.018,103.0,108.0,102.0,13.4,1505.2,328.9,-0.8,1.8,2470.809,13.28,0.04,107.1
2022-05-16T01:25:03,42.805,6.029,0.051,-0.02,-0.012,104.0,106.0,102.0,13.4,1505.2,331.7,-0.8,1.8,2470.772,13.28,0.054,111.4
2022-05-16T01:28:03,42.805,6.029,0.071,-0.004,0.021,105.0,106.0,102.0,13.4,1505.2,326.1,-0.8,1.8,2470.788,13.28,0.071,93.2
2022-05-16T01:31:03,42.805,6.029,0.072,-0.009,-0.004,103.0,106.0,102.0,13.3,1505.2,325.0,-0.7,1.8,2470.824,13.28,0.072,97.1
2022-05-16T01:34:03,42.805,6.029,0.061,-0.006,0.012,106.0,106.0,101.0,13.4,1505.2,326.8,-0.7,1.8,2470.779,13.28,0.061,95.6
2022-05-16T01:37:03,42.805,6.029,0.058,-0.022,-0.01,103.0,107.0,103.0,13.3,1505.2,328.7,-0.7,1.8,2470.782,13.28,0.062,110.8
2022-05-16T01:40:03,42.805,6.029,0.069,-0.023,-0.02,105.0,106.0,102.0,13.4,1505.2,325.5,-0.8,1.8,2470.775,13.28,0.072,108.4
2022-05-16T01:43:03,42.805,6.029,0.041,0.008,0.0,103.0,105.0,103.0,13.4,1505.2,321.4,-0.7,1.8,2470.794,13.28,0.041,79.0
2022-05-16T01:46:03,42.805,6.029,0.059,0.005,0.007,105.0,106.0,101.0,13.4,1505.2,325.1,-0.8,1.8,2470.811,13.28,0.059,85.2
2022-05-16T01:49:03,42.805,6.029,0.078,-0.021,0.033,103.0,107.0,102.0,13.4,1505.2,332.4,-0.8,1.8,2470.821,13.28,0.08,105.1
2022-05-16T01:52:03,42.805,6.029,0.051,-0.017,0.008,104.0,105.0,102.0,13.4,1505.2,321.6,-0.8,1.8,2470.76,13.28,0.053,108.4
2022-05-16T01:55:03,42.805,6.029,0.073,-0.006,0.011,103.0,106.0,103.0,13.4,1505.2,326.9,-0.7,1.8,2470.76,13.28,0.073,94.7
2022-05-16T01:58:03,42.805,6.029,0.091,-0.029,0.028,104.0,106.0,101.0,13.4,1505.2,329.5,-0.7,1.8,2470.768,13.28,0.095,107.7
2022-05-16T02:01:03,42.805,6.029,0.037,-0.008,0.009,104.0,105.0,102.0,13.4,1505.2,327.0,-0.8,1.8,2470.792,13.28,0.037,102.2
2022-05-16T02:04:03,42.805,6.029,0.045,-0.015,-0.004,104.0,106.0,103.0,13.3,1505.2,325.1,-0.8,1.8,2470.787,13.28,0.047,108.4
2022-05-16T02:07:03,42.805,6.029,0.056,0.0,0.031,104.0,105.0,102.0,13.4,1505.2,321.0,-0.8,1.8,2470.74,13.28,0.056,90.0
2022-05-16T02:10:03,42.805,6.029,0.054,-0.007,-0.009,105.0,106.0,101.0,13.4,1505.2,328.8,-0.8,1.8,2470.805,13.28,0.054,97.4
2022-05-16T02:13:03,42.805,6.029,0.065,-0.018,0.022,104.0,105.0,101.0,13.4,1505.2,327.2,-0.7,1.8,2470.797,13.28,0.067,105.5
2022-05-16T02:16:03,42.805,6.029,0.07,-0.012,-0.018,104.0,104.0,102.0,13.4,1505.2,329.3,-0.8,1.8,2470.807,13.28,0.071,99.7
2022-05-16T02:19:03,42.805,6.029,0.048,-0.007,0.029,103.0,107.0,103.0,13.4,1505.2,328.0,-0.7,1.8,2470.794,13.28,0.048,98.3
2022-05-16T02:22:03,42.805,6.029,0.037,-0.001,-0.004,104.0,105.0,102.0,13.4,1505.2,324.3,-0.8,1.8,2470.774,13.28,0.037,91.5
2022-05-16T02:25:03,42.805,6.029,0.062,-0.009,0.008,104.0,105.0,103.0,13.4,1505.2,329.0,-0.8,1.8,2470.808,13.28,0.062,98.3
2022-05-16T02:28:03,42.805,6.029,0.064,-0.033,0.011,103.0,104.0,101.0,13.4,1505.2,329.5,-0.7,1.8,2470.768,13.28,0.072,117.3
2022-05-16T02:31:03,42.805,6.029,0.073,-0.035,0.0,105.0,104.0,102.0,13.4,1505.2,321.9,-0.7,1.8,2470.805,13.28,0.08,115.6
2022-05-16T02:34:03,42.805,6.029,0.044,-0.016,0.001,104.0,106.0,101.0,13.3,1505.2,329.7,-0.7,1.8,2470.833,13.28,0.046,110.0
2022-05-16T02:37:03,42.805,6.029,0.068,-0.008,0.023,104.0,105.0,102.0,13.4,1505.2,327.4,-0.8,1.8,2470.776,13.28,0.068,96.7
2022-05-16T02:40:03,42.805,6.029,0.06,-0.023,0.006,105.0,105.0,102.0,13.3,1505.2,332.0,-0.8,1.8,2470.8,13.28,0.064,111.0
2022-05-16T02:43:03,42.805,6.029,0.063,-0.009,0.007,105.0,106.0,102.0,13.3,1505.2,330.1,-0.8,1.8,2470.774,13.28,0.063,98.1
2022-05-16T02:46:03,42.805,6.029,0.075,-0.017,0.025,105.0,106.0,101.0,13.3,1505.2,321.6,-0.8,1.8,2470.836,13.28,0.076,102.8
2022-05-16T02:49:03,42.805,6.029,0.056,0.0,-0.008,105.0,107.0,103.0,13.4,1505.2,325.1,-0.7,1.8,2470.773,13.28,0.056,90.0
2022-05-16T02:52:03,42.805,6.029,0.041,0.006,0.034,104.0,107.0,102.0,13.4,1505.2,325.0,-0.7,1.8,2470.832,13.28,0.041,81.7
2022-05-16T02:55:03,42.805,6.029,0.051,-0.006,0.009,105.0,106.0,101.0,13.3,1505.2,327.1,-0.8,1.8,2470.787,13.28,0.051,96.7
2022-05-16T02:58:03,42.805,6.029,0.05,-0.016,0.018,105.0,106.0,102.0,13.3,1505.2,327.7,-0.8,1.8,2470.819,13.28,0.052,107.7
2022-05-16T03:04:03,42.805,6.029,0.045,0.013,0.0,105.0,105.0,102.0,13.3,1505.2,322.4,-0.8,1.8,2470.836,13.28,0.046,73.9
2022-05-16T03:07:03,42.805,6.029,0.054,-0.01,0.017,104.0,107.0,102.0,13.3,1505.2,327.3,-0.8,1.8,2470.815,13.28,0.054,100.5
2022-05-16T03:10:03,42.805,6.029,0.056,-0.008,-0.004,105.0,106.0,102.0,13.4,1505.2,329.0,-0.7,1.8,2470.786,13.28,0.056,98.1
2022-05-16T03:13:03,42.805,6.029,0.043,-0.015,0.003,105.0,106.0,103.0,13.4,1505.2,330.0,-0.8,1.8,2470.803,13.28,0.045,109.2
2022-05-16T03:16:03,42.805,6.029,0.057,-0.017,-0.004,105.0,105.0,103.0,13.4,1505.2,328.6,-0.8,1.8,2470.806,13.28,0.059,106.6
2022-05-16T03:19:03,42.805,6.029,0.076,-0.026,0.012,105.0,107.0,103.0,13.3,1505.2,332.0,-0.8,1.8,2470.84,13.28,0.08,108.9
2022-05-16T03:22:03,42.805,6.029,0.075,-0.025,-0.025,105.0,106.0,104.0,13.4,1505.2,325.0,-0.7,1.8,2470.801,13.28,0.079,108.4
2022-05-16T03:25:03,42.805,6.029,0.065,-0.015,0.0,104.0,104.0,102.0,13.4,1505.2,330.6,-0.7,1.9,2470.827,13.28,0.066,103.0
2022-05-16T03:28:03,42.805,6.029,0.056,-0.01,0.025,104.0,104.0,102.0,13.3,1505.2,328.8,-0.7,1.8,2470.824,13.28,0.056,100.1
2022-05-16T03:31:03,42.805,6.029,0.051,-0.006,0.009,105.0,105.0,101.0,13.4,1505.2,323.7,-0.8,1.8,2470.773,13.28,0.051,96.7
2022-05-16T03:34:03,42.805,6.029,0.059,-0.002,0.018,106.0,105.0,102.0,13.4,1505.2,327.1,-0.8,1.8,2470.821,13.28,0.059,91.9
2022-05-16T03:37:03,42.805,6.029,0.035,0.0,-0.013,106.0,105.0,102.0,13.4,1505.2,324.9,-0.8,1.8,2470.815,13.28,0.035,90.0
2022-05-16T03:40:03,42.805,6.029,0.067,-0.018,0.019,104.0,106.0,102.0,13.3,1505.2,324.9,-0.8,1.8,2470.824,13.28,0.069,105.0
2022-05-16T03:43:03,42.805,6.029,0.044,-0.01,0.009,104.0,106.0,102.0,13.4,1505.2,329.3,-0.8,1.8,2470.815,13.28,0.045,102.8
2022-05-16T03:46:03,42.805,6.029,0.054,-0.013,0.017,103.0,106.0,103.0,13.3,1505.2,332.0,-0.8,1.8,2470.822,13.28,0.055,103.5
2022-05-16T03:49:03,42.805,6.029,0.054,-0.014,0.006,104.0,105.0,101.0,13.4,1505.2,321.9,-0.7,1.8,2470.836,13.28,0.055,104.5
2022-05-16T03:52:03,42.805,6.029,0.071,-0.015,0.052,104.0,106.0,102.0,13.4,1505.2,326.8,-0.8,1.8,2470.826,13.28,0.072,101.9
2022-05-16T03:55:03,42.805,6.029,0.075,-0.015,0.014,104.0,105.0,102.0,13.3,1505.2,324.9,-0.8,1.8,2470.829,13.28,0.076,101.3
2022-05-16T03:58:03,42.805,6.029,0.057,-0.004,0.013,105.0,106.0,102.0,13.3,1505.2,323.1,-0.7,1.8,2470.851,13.28,0.057,94.0
2022-05-16T04:04:03,42.805,6.029,0.065,-0.006,0.032,105.0,107.0,102.0,13.4,1505.2,325.5,-0.7,1.8,2470.901,13.28,0.065,95.3
2022-05-16T04:07:03,42.805,6.029,0.052,0.002,0.011,105.0,106.0,102.0,13.4,1505.2,327.8,-0.8,1.8,2470.9,13.28,0.052,87.8
2022-05-16T04:10:03,42.805,6.029,0.043,-0.024,-0.008,105.0,106.0,102.0,13.4,1505.2,330.5,-0.8,1.8,2470.887,13.28,0.049,119.2
2022-05-16T04:13:03,42.805,6.029,0.049,-0.019,-0.011,105.0,105.0,103.0,13.4,1505.2,330.6,-0.8,1.8,2470.892,13.28,0.052,111.2
2022-05-16T04:16:03,42.805,6.029,0.048,0.003,0.008,106.0,105.0,102.0,13.3,1505.2,322.8,-0.7,1.8,2470.884,13.28,0.048,86.4
2022-05-16T04:19:03,42.805,6.029,0.044,-0.018,0.003,105.0,103.0,103.0,13.4,1505.2,325.4,-0.8,1.8,2470.883,13.28,0.047,112.2
2022-05-16T04:22:03,42.805,6.029,0.051,0.0,-0.003,105.0,104.0,101.0,13.4,1505.2,327.1,-0.8,1.8,2470.906,13.28,0.051,90.0
2022-05-16T04:25:03,42.805,6.029,0.041,-0.017,0.01,105.0,106.0,102.0,13.4,1505.2,327.0,-0.7,1.8,2470.884,13.28,0.044,112.5
2022-05-16T04:28:03,42.805,6.029,0.046,-0.03,0.009,105.0,106.0,103.0,13.4,1505.2,325.5,-0.8,1.8,2470.899,13.28,0.054,123.1
2022-05-16T04:31:03,42.805,6.029,0.039,0.004,0.0,106.0,105.0,102.0,13.4,1505.2,332.6,-0.7,1.8,2470.918,13.28,0.039,84.1
2022-05-16T04:34:03,42.805,6.029,0.037,-0.027,-0.023,105.0,106.0,102.0,13.3,1505.2,330.5,-0.7,1.8,2470.926,13.28,0.045,126.1
2022-05-16T04:37:03,42.805,6.029,0.059,-0.027,0.018,104.0,106.0,102.0,13.4,1505.2,332.8,-0.8,1.8,2470.887,13.28,0.064,114.6
2022-05-16T04:40:03,42.805,6.029,0.038,-0.014,-0.007,104.0,106.0,102.0,13.4,1505.2,325.4,-0.8,1.8,2470.921,13.28,0.04,110.2
2022-05-16T04:43:03,42.805,6.029,0.052,-0.021,0.016,106.0,106.0,102.0,13.4,1505.2,330.7,-0.7,1.8,2470.891,13.28,0.056,112.0
2022-05-16T04:46:03,42.805,6.029,0.032,-0.015,0.001,105.0,106.0,102.0,13.4,1505.2,329.4,-0.7,1.8,2470.908,13.28,0.035,115.1
2022-05-16T04:49:03,42.805,6.029,0.052,-0.021,-0.001,106.0,105.0,103.0,13.4,1505.2,330.9,-0.8,1.8,2470.909,13.28,0.056,112.0
2022-05-16T04:52:03,42.805,6.029,0.041,-0.034,0.01,105.0,104.0,102.0,13.4,1505.2,330.5,-0.8,1.8,2470.931,13.28,0.053,129.7
2022-05-16T04:55:03,42.805,6.029,0.045,-0.025,0.003,105.0,104.0,103.0,13.4,1505.2,331.6,-0.8,1.8,2470.911,13.28,0.051,119.1
2022-05-16T04:58:03,42.805,6.029,0.045,-0.026,0.03,105.0,105.0,103.0,13.4,1505.2,330.3,-0.7,1.8,2470.93,13.28,0.051,120.0
2022-05-16T05:04:03,42.805,6.029,0.04,-0.011,0.001,105.0,105.0,103.0,13.4,1505.2,332.1,-0.8,1.9,2470.959,13.28,0.041,105.4
2022-05-16T05:07:03,42.805,6.029,0.042,-0.011,0.014,106.0,105.0,102.0,13.4,1505.2,330.5,-0.8,1.8,2470.946,13.28,0.043,104.7
2022-05-16T05:10:03,42.805,6.029,0.022,-0.005,0.01,106.0,105.0,103.0,13.3,1505.2,331.3,-0.7,1.8,2470.947,13.28,0.022,102.8
2022-05-16T05:13:03,42.805,6.029,0.034,-0.027,-0.024,106.0,106.0,102.0,13.4,1505.2,330.4,-0.8,1.8,2470.925,13.28,0.043,128.5
2022-05-16T05:16:03,42.805,6.029,0.042,-0.008,-0.012,104.0,106.0,103.0,13.4,1505.2,324.5,-0.7,1.8,2470.964,13.28,0.042,100.8
2022-05-16T05:19:03,42.805,6.029,0.037,-0.021,-0.004,106.0,105.0,102.0,13.4,1505.2,330.9,-0.7,1.8,2470.942,13.28,0.042,119.6
2022-05-16T05:22:03,42.805,6.029,0.04,-0.003,0.014,106.0,105.0,102.0,13.3,1505.2,322.6,-0.8,1.8,2470.969,13.28,0.04,94.3
2022-05-16T05:25:03,42.805,6.029,0.029,-0.013,0.018,105.0,105.0,103.0,13.3,1505.2,331.2,-0.8,1.8,2470.926,13.28,0.031,114.1
2022-05-16T05:28:03,42.805,6.029,0.041,-0.012,-0.018,104.0,104.0,103.0,13.4,1505.2,328.4,-0.7,1.8,2470.935,13.28,0.042,106.3
2022-05-16T05:31:03,42.805,6.029,0.035,-0.011,-0.015,106.0,106.0,102.0,13.4,1505.2,328.1,-0.8,1.9,2470.964,13.28,0.036,107.4
2022-05-16T05:34:03,42.805,6.029,0.032,-0.004,0.002,106.0,105.0,103.0,13.4,1505.2,327.4,-0.8,1.8,2470.974,13.28,0.032,97.1
2022-05-16T05:37:03,42.805,6.029,0.024,0.007,-0.004,106.0,105.0,102.0,13.4,1505.2,324.6,-0.8,1.8,2470.991,13.28,0.025,73.7
2022-05-16T05:40:03,42.805,6.029,0.01,-0.006,0.001,107.0,106.0,103.0,13.4,1505.2,327.1,-0.7,1.8,2470.963,13.28,0.011,121.0
2022-05-16T05:43:03,42.805,6.029,0.024,-0.021,-0.005,104.0,106.0,102.0,13.4,1505.2,329.8,-0.8,1.8,2470.978,13.28,0.031,131.2
2022-05-16T05:46:03,42.805,6.029,0.028,0.005,0.0,105.0,104.0,103.0,13.4,1505.2,322.2,-0.7,1.8,2470.983,13.28,0.028,79.9
2022-05-16T05:49:03,42.805,6.029,0.027,-0.019,-0.032,105.0,105.0,103.0,13.4,1505.2,323.2,-0.7,1.8,2470.977,13.28,0.033,125.1
2022-05-16T05:52:03,42.805,6.029,0.034,-0.034,0.01,105.0,107.0,103.0,13.4,1505.2,332.0,-0.8,1.8,2470.969,13.28,0.048,135.0
2022-05-16T05:55:03,42.805,6.029,0.038,-0.03,0.0,105.0,105.0,103.0,13.4,1505.2,327.7,-0.8,1.8,2470.983,13.28,0.048,128.3
2022-05-16T05:58:03,42.805,6.029,0.032,-0.02,-0.014,105.0,105.0,103.0,13.4,1505.2,327.4,-0.8,1.8,2470.932,13.28,0.037,122.0
2022-05-16T06:04:03,42.805,6.029,0.013,-0.02,-0.017,103.0,105.0,103.0,13.4,1505.2,329.5,-0.8,1.8,2471.006,13.28,0.023,147.0
2022-05-16T06:07:03,42.805,6.029,0.014,-0.008,-0.007,104.0,104.0,103.0,13.4,1505.2,326.8,-0.7,1.8,2470.954,13.28,0.016,119.7
2022-05-16T06:10:03,42.805,6.029,0.014,0.002,0.021,106.0,105.0,102.0,13.4,1505.2,325.9,-0.8,1.8,2470.972,13.28,0.014,81.9
2022-05-16T06:13:03,42.805,6.029,0.028,-0.015,-0.003,106.0,105.0,103.0,13.4,1505.2,325.4,-0.8,1.8,2470.955,13.28,0.031,118.2
2022-05-16T06:16:03,42.805,6.029,0.017,-0.021,-0.005,105.0,106.0,103.0,13.4,1505.2,327.8,-0.8,1.8,2470.959,13.28,0.027,141.0
2022-05-16T06:19:03,42.805,6.029,0.041,0.0,-0.02,106.0,107.0,101.0,13.3,1505.2,324.7,-0.8,1.8,2470.988,13.28,0.041,90.0
2022-05-16T06:22:03,42.805,6.029,0.018,-0.005,0.016,105.0,105.0,102.0,13.3,1505.2,328.6,-0.7,1.8,2470.995,13.28,0.018,105.5
2022-05-16T06:25:03,42.805,6.029,0.014,-0.013,0.013,106.0,106.0,102.0,13.4,1505.2,324.6,-0.8,1.8,2470.98,13.28,0.019,132.9
2022-05-16T06:28:03,42.805,6.029,0.031,-0.023,0.005,105.0,106.0,103.0,13.3,1505.2,325.2,-0.8,1.8,2470.968,13.29,0.038,126.6
2022-05-16T06:31:03,42.805,6.029,0.017,0.001,0.015,106.0,105.0,104.0,13.4,1505.2,328.0,-0.7,1.8,2470.936,13.29,0.017,86.6
2022-05-16T06:34:03,42.805,6.029,0.038,-0.012,-0.004,106.0,106.0,103.0,13.3,1505.2,325.7,-0.7,1.8,2470.956,13.29,0.039,107.5
2022-05-16T06:37:03,42.805,6.029,0.014,-0.022,-0.024,105.0,106.0,102.0,13.4,1505.2,326.5,-0.7,1.9,2470.989,13.29,0.026,147.5
2022-05-16T06:40:03,42.805,6.029,0.033,-0.005,0.033,105.0,104.0,103.0,13.4,1505.2,322.0,-0.8,1.8,2470.996,13.29,0.033,98.6
2022-05-16T06:43:03,42.805,6.029,0.032,-0.011,0.012,105.0,105.0,103.0,13.3,1505.2,330.9,-0.8,1.8,2470.938,13.29,0.033,109.0
2022-05-16T06:46:03,42.805,6.029,0.044,-0.018,-0.002,106.0,106.0,103.0,13.3,1505.2,324.7,-0.7,1.8,2470.941,13.29,0.047,112.2
2022-05-16T06:49:03,42.805,6.029,0.035,-0.02,0.017,106.0,105.0,102.0,13.4,1505.2,332.6,-0.7,1.8,2470.968,13.29,0.04,119.7
2022-05-16T06:52:03,42.805,6.029,0.024,-0.025,-0.014,106.0,105.0,103.0,13.3,1505.2,323.7,-0.8,1.9,2470.963,13.29,0.034,136.2
2022-05-16T06:55:03,42.805,6.029,0.027,-0.002,0.001,106.0,105.0,103.0,13.4,1505.2,324.2,-0.8,1.9,2471.001,13.29,0.027,94.2
2022-05-16T06:58:03,42.805,6.029,0.012,-0.018,0.007,105.0,104.0,103.0,13.4,1505.2,325.6,-0.8,1.8,2470.957,13.29,0.021,146.3
2022-05-16T07:04:03,42.805,6.029,0.019,-0.027,0.008,106.0,105.0,103.0,13.4,1505.2,324.4,-0.8,1.8,2471.02,13.28,0.033,144.9
2022-05-16T07:07:03,42.805,6.029,0.022,0.005,-0.001,106.0,106.0,103.0,13.3,1505.2,326.1,-0.7,1.8,2470.981,13.28,0.022,77.2
2022-05-16T07:10:03,42.805,6.029,0.034,-0.017,0.007,106.0,105.0,102.0,13.3,1505.2,324.4,-0.8,1.8,2470.947,13.28,0.038,116.6
2022-05-16T07:13:03,42.805,6.029,0.024,-0.02,-0.006,106.0,105.0,103.0,13.4,1505.2,324.2,-0.8,1.8,2470.997,13.28,0.031,129.8
2022-05-16T07:16:03,42.805,6.029,0.034,-0.021,-0.007,106.0,105.0,104.0,13.4,1505.2,331.9,-0.8,1.8,2470.962,13.28,0.039,121.7
2022-05-16T07:19:03,42.805,6.029,0.023,-0.006,0.029,107.0,105.0,103.0,13.3,1505.2,329.8,-0.8,1.8,2470.985,13.29,0.023,104.6
2022-05-16T07:22:03,42.805,6.029,0.007,-0.038,-0.019,105.0,106.0,103.0,13.3,1505.2,332.1,-0.7,1.8,2470.962,13.29,0.038,169.6
2022-05-16T07:25:03,42.805,6.029,0.028,-0.001,-0.006,106.0,108.0,104.0,13.4,1505.2,321.8,-0.8,1.8,2470.964,13.29,0.028,92.0
2022-05-16T07:28:03,42.805,6.029,0.014,-0.007,0.025,106.0,105.0,103.0,13.4,1505.2,324.4,-0.7,1.8,2470.95,13.29,0.015,116.6
2022-05-16T07:31:03,42.805,6.029,-0.002,-0.023,-0.03,108.0,104.0,103.0,13.4,1505.2,331.7,-0.7,1.8,2470.944,13.29,0.023,185.0
2022-05-16T07:34:03,42.805,6.029,0.005,-0.016,-0.002,106.0,103.0,103.0,13.4,1505.2,323.9,-0.8,1.8,2470.952,13.29,0.016,162.6
2022-05-16T07:37:03,42.805,6.029,0.0,-0.014,-0.005,105.0,106.0,104.0,13.3,1505.2,321.8,-0.8,1.8,2470.978,13.29,0.014,180.0
2022-05-16T07:40:03,42.805,6.029,-0.007,-0.016,-0.016,106.0,105.0,102.0,13.3,1505.2,323.2,-0.8,1.8,2471.022,13.29,0.017,203.6
2022-05-16T07:43:03,42.805,6.029,0.01,-0.014,-0.019,105.0,105.0,104.0,13.4,1505.2,329.9,-0.8,1.8,2470.985,13.29,0.017,144.5
2022-05-16T07:46:03,42.805,6.029,0.015,-0.012,-0.001,105.0,106.0,103.0,13.4,1505.2,325.3,-0.8,1.8,2470.944,13.29,0.019,128.7
2022-05-16T07:49:03,42.805,6.029,0.026,0.004,0.017,108.0,106.0,104.0,13.3,1505.2,322.9,-0.8,1.8,2470.949,13.29,0.026,81.3
2022-05-16T07:52:03,42.805,6.029,0.019,-0.016,0.003,104.0,107.0,103.0,13.4,1505.2,325.7,-0.7,1.9,2470.944,13.29,0.024,130.1
2022-05-16T07:55:03,42.805,6.029,0.016,-0.007,-0.031,107.0,104.0,103.0,13.4,1505.2,325.7,-0.7,1.8,2470.968,13.29,0.017,113.6
2022-05-16T07:58:03,42.805,6.029,0.035,-0.022,-0.017,108.0,105.0,105.0,13.3,1505.2,322.8,-0.8,1.8,2470.964,13.29,0.041,122.2
2022-05-16T08:04:03,42.805,6.029,0.012,-0.014,-0.01,110.0,105.0,103.0,13.4,1505.2,324.7,-0.8,1.8,2470.965,13.28,0.018,139.4
2022-05-16T08:07:03,42.805,6.029,0.001,-0.002,-0.032,105.0,105.0,105.0,13.3,1505.2,323.7,-0.8,1.8,2470.945,13.28,0.002,153.4
2022-05-16T08:10:03,42.805,6.029,0.03,-0.016,0.024,105.0,106.0,104.0,13.4,1505.2,327.7,-0.7,1.8,2470.958,13.28,0.034,118.1
2022-05-16T08:13:03,42.805,6.029,0.03,0.01,-0.008,104.0,106.0,103.0,13.4,1505.2,321.2,-0.7,1.8,2470.961,13.29,0.031,71.6
2022-05-16T08:16:03,42.805,6.029,0.006,-0.019,0.0,105.0,107.0,103.0,13.4,1505.2,332.2,-0.8,1.8,2470.942,13.29,0.019,162.5
2022-05-16T08:19:03,42.805,6.029,0.004,-0.008,-0.041,106.0,108.0,103.0,13.4,1505.2,328.5,-0.7,1.9,2470.986,13.29,0.008,153.4
2022-05-16T08:22:03,42.805,6.029,0.004,-0.013,0.005,106.0,105.0,103.0,13.4,1505.2,332.8,-0.8,1.8,2470.926,13.29,0.013,162.9
2022-05-16T08:25:03,42.805,6.029,0.016,-0.031,0.003,106.0,106.0,103.0,13.4,1505.2,323.0,-0.8,1.8,2470.933,13.29,0.034,152.7
2022-05-16T08:28:03,42.805,6.029,-0.006,0.016,-0.006,105.0,106.0,104.0,13.3,1505.2,325.8,-0.8,1.8,2470.948,13.29,0.017,339.4
2022-05-16T08:31:03,42.805,6.029,0.017,-0.025,-0.022,105.0,105.0,103.0,13.4,1505.2,329.2,-0.8,1.8,2470.939,13.29,0.03,145.8
2022-05-16T08:34:03,42.805,6.029,0.0,-0.009,0.0,104.0,106.0,103.0,13.4,1505.2,331.5,-0.8,1.8,2470.945,13.29,0.009,180.0
2022-05-16T08:37:03,42.805,6.029,0.016,-0.024,-0.021,106.0,105.0,104.0,13.4,1505.2,332.4,-0.7,1.8,2470.964,13.29,0.028,146.3
2022-05-16T08:40:03,42.805,6.029,0.025,-0.003,0.004,105.0,106.0,103.0,13.4,1505.2,330.5,-0.8,1.8,2470.956,13.29,0.025,96.8
2022-05-16T08:43:03,42.805,6.029,0.031,-0.009,-0.011,106.0,104.0,102.0,13.3,1505.2,329.3,-0.7,1.8,2470.938,13.29,0.032,106.2
2022-05-16T08:46:03,42.805,6.029,0.025,-0.008,0.014,105.0,106.0,103.0,13.4,1505.2,332.8,-0.7,1.8,2470.959,13.29,0.026,107.7
2022-05-16T08:49:03,42.805,6.029,0.016,0.006,0.0,105.0,105.0,102.0,13.4,1505.2,322.3,-0.8,1.8,2470.982,13.29,0.017,69.4
2022-05-16T08:52:03,42.805,6.029,-0.001,-0.007,-0.016,105.0,106.0,104.0,13.4,1505.2,321.8,-0.8,1.8,2470.9,13.29,0.007,188.1
2022-05-16T08:55:03,42.805,6.029,0.014,-0.019,-0.011,106.0,105.0,104.0,13.4,1505.2,322.1,-0.8,1.8,2470.881,13.29,0.023,143.6
2022-05-16T08:58:03,42.805,6.029,0.021,-0.004,-0.014,105.0,105.0,103.0,13.4,1505.2,326.0,-0.8,1.8,2470.923,13.29,0.021,100.8
2022-05-16T09:01:03,42.805,6.029,0.0,-0.018,-0.007,105.0,105.0,103.0,13.3,1505.2,331.2,-0.7,1.8,2470.935,13.29,0.018,180.0
2022-05-16T09:04:03,42.805,6.029,0.031,-0.025,0.033,106.0,104.0,103.0,13.4,1505.2,327.4,-0.8,1.8,2470.904,13.29,0.039,128.9
2022-05-16T09:07:03,42.805,6.029,0.002,-0.02,-0.009,106.0,105.0,102.0,13.3,1505.2,331.8,-0.8,1.8,2470.92,13.29,0.02,174.3
2022-05-16T09:10:03,42.805,6.029,0.014,0.004,-0.016,105.0,107.0,103.0,13.3,1505.2,327.8,-0.8,1.8,2470.908,13.29,0.014,74.1
2022-05-16T09:13:03,42.805,6.029,-0.002,0.003,-0.04,105.0,104.0,103.0,13.3,1505.2,327.1,-0.7,1.8,2470.902,13.29,0.003,326.3
2022-05-16T09:16:03,42.805,6.029,-0.005,-0.012,-0.006,104.0,105.0,103.0,13.3,1505.2,323.7,-0.8,1.8,2470.943,13.29,0.013,202.6
2022-05-16T09:19:03,42.805,6.029,0.012,-0.033,-0.019,105.0,105.0,103.0,13.4,1505.2,332.8,-0.8,1.8,2470.885,13.29,0.035,160.0
2022-05-16T09:22:03,42.805,6.029,0.006,0.007,0.005,105.0,106.0,104.0,13.4,1505.2,320.5,-0.8,1.8,2470.9,13.29,0.009,40.6
2022-05-16T09:25:03,42.805,6.029,0.004,-0.015,-0.009,105.0,103.0,102.0,13.3,1505.2,330.1,-0.8,1.8,2470.888,13.29,0.015,165.1
2022-05-16T09:28:03,42.805,6.029,0.013,-0.003,0.003,106.0,108.0,103.0,13.4,1505.2,326.8,-0.8,1.8,2470.904,13.29,0.013,103.0
2022-05-16T09:31:03,42.805,6.029,0.015,0.009,-0.01,108.0,104.0,104.0,13.4,1505.2,326.0,-0.7,1.8,2470.923,13.29,0.017,59.0
2022-05-16T09:34:03,42.805,6.029,0.011,-0.007,0.004,106.0,107.0,103.0,13.4,1505.2,325.7,-0.8,1.8,2470.924,13.29,0.013,122.5
2022-05-16T09:37:03,42.805,6.029,0.005,0.015,0.004,106.0,105.0,105.0,13.4,1505.2,325.8,-0.8,1.8,2470.936,13.29,0.015,18.4
2022-05-16T09:40:03,42.805,6.029,-0.006,-0.011,0.008,108.0,107.0,104.0,13.4,1505.2,321.4,-0.7,1.8,2470.875,13.29,0.012,208.6
2022-05-16T09:43:03,42.805,6.029,0.008,-0.005,-0.014,109.0,105.0,103.0,13.3,1505.2,327.0,-0.8,1.8,2470.869,13.29,0.009,122.0
2022-05-16T09:46:03,42.805,6.029,-0.003,-0.005,-0.014,105.0,105.0,103.0,13.3,1505.2,328.6,-0.7,1.8,2470.901,13.29,0.005,211.0
2022-05-16T09:49:03,42.805,6.029,0.016,-0.004,0.004,105.0,106.0,104.0,13.4,1505.2,328.0,-0.7,1.8,2470.867,13.29,0.016,104.0
2022-05-16T09:52:03,42.805,6.029,-0.009,0.0,-0.016,105.0,104.0,103.0,13.4,1505.2,324.1,-0.8,1.8,2470.914,13.29,0.009,270.0